Observations
| Time | Sensor | AQI | SAQ | Temp °C | Hum % | Pres Pa | CO μg/m³ | H₂S μg/m³ | NO μg/m³ | NO₂ μg/m³ | O₃ μg/m³ | SO₂ μg/m³ | CO₂e PPM | VOC PPM | PM1 μg/m³ | PM2.5 μg/m³ | PM4 μg/m³ | PM10 μg/m³ | TPS µm |
|---|---|---|---|---|---|---|---|---|---|---|---|---|---|---|---|---|---|---|---|
| Wednesday 12 August 2026 | |||||||||||||||||||
| 01:49 | Trim Market St | 2 | 20 | 61 | 57,780 | 0 | 0 | 1.23 | 20.67 | 58.39 | 0 | 1.43 | 3.98 | 5.49 | |||||
| 01:49 | Trim Patrick St | 2 | 19.3 | 64 | 77,009 | 0 | 9.06 | 1.25 | 43.48 | 47.2 | 1.93 | 3.71 | 8.44 | 9.29 | |||||
| 01:48 | Trim Patrick St | 2 | 19.3 | 65 | 76,879 | 0 | 6.75 | 1.26 | 26.59 | 45.21 | 1.87 | 3.71 | 7.66 | 8.43 | |||||
| 01:47 | Trim Patrick St | 2 | 19.3 | 64 | 76,783 | 0 | 8.17 | 1.26 | 17.85 | 37.42 | 2.12 | 3.71 | 8.43 | 9.27 | |||||
| 01:46 | Trim Patrick St | 2 | 19.3 | 64 | 76,688 | 0 | 7.75 | 1.26 | 41.13 | 45.48 | 1.69 | 3.71 | 7 | 7.7 | |||||
| 01:45 | Trim Patrick St | 2 | 19.3 | 65 | 76,576 | 0 | 6.75 | 1.27 | 13.21 | 49.06 | 2.02 | 5.43 | 9.85 | 10.83 | |||||
| 01:44 | Trim Patrick St | 2 | 19.3 | 64 | 76,494 | 0 | 10.06 | 1.27 | 33.99 | 39.72 | 1.7 | 4.57 | 9.17 | 10.09 | |||||
| 01:43 | Trim Patrick St | 2 | 19.3 | 63 | 76,383 | 0 | 9.83 | 1.24 | 26.53 | 38.04 | 2.27 | 3.71 | 9.26 | 10.18 | |||||
| 01:42 | Trim Patrick St | 2 | 19.4 | 65 | 76,293 | 0 | 8.14 | 1.28 | 38.89 | 45.38 | 1.94 | 4.57 | 7.66 | 8.42 | |||||
| 01:41 | Trim Patrick St | 2 | 19.4 | 65 | 76,199 | 0 | 5.8 | 1.3 | 14.43 | 44.03 | 1.95 | 3.71 | 7.67 | 8.44 | |||||
| 01:40 | Trim Patrick St | 2 | 19.4 | 65 | 76,136 | 0 | 7.22 | 1.27 | 19.04 | 37.62 | 1.65 | 3.71 | 7.68 | 8.45 | |||||
| 01:39 | Trim Market St | 2 | 20.1 | 60 | 57,819 | 0 | 0 | 1.22 | 30.8 | 55.28 | 0 | 1.43 | 3.01 | 4.11 | |||||
| 01:39 | Trim Patrick St | 2 | 19.4 | 63 | 76,051 | 0 | 8.09 | 1.22 | 41.87 | 47.04 | 1.91 | 4.57 | 8.56 | 9.41 | |||||
| 01:38 | Trim Patrick St | 2 | 19.4 | 65 | 75,961 | 0 | 7.85 | 1.26 | 20.64 | 39.29 | 1.75 | 5.43 | 9.13 | 10.04 | |||||
| 01:37 | Trim Market St | 2 | 20.2 | 60 | 57,825 | 0 | 0 | 1.23 | 18.05 | 58.49 | 0 | 1.43 | 4.01 | 6.84 | |||||
| 01:37 | Trim Patrick St | 2 | 19.4 | 64 | 75,874 | 0 | 10.01 | 1.26 | 29.79 | 48.65 | 2.09 | 3.71 | 7.7 | 8.47 | |||||
| 01:36 | Trim Market St | 2 | 20.2 | 60 | 57,825 | 0 | 0 | 1.22 | 17.16 | 60.58 | 0 | 2.14 | 4.51 | 6.16 | |||||
| 01:36 | Trim Patrick St | 2 | 19.4 | 64 | 75,782 | 0 | 9.96 | 1.25 | 35.03 | 55.28 | 2.69 | 4.57 | 8.46 | 9.3 | |||||
| 01:35 | Trim Market St | 2 | 20.2 | 60 | 57,827 | 0 | 0 | 1.22 | 15.24 | 58.14 | 0 | 0.71 | 3.52 | 5.47 | |||||
| 01:34 | Trim Patrick St | 2 | 19.5 | 61 | 75,631 | 0 | 8.3 | 1.21 | 32.62 | 37.87 | 2.33 | 3.71 | 8.67 | 9.53 | |||||